This is the latest recevied weather packets stored in our database for station/object K9MWD. If no packets are shown the sender has not sent any weather packets the latest 10 day(s).
| Time | Temp. | Humidity | Pressure | Rain* | Wind** | Luminosity | Snow |
|---|---|---|---|---|---|---|---|
| 1777935700 | 26.11° C | 62% | 1007.7 hPa | 0 mm | - | 141 W/m² | - |
| 1777935398 | 26.67° C | 61% | 1007.8 hPa | 0 mm | - | 183 W/m² | - |
| 1777935093 | 26.67° C | 61% | 1007.6 hPa | 0 mm | - | 208 W/m² | - |
| 1777934790 | 26.67° C | 61% | 1007.8 hPa | 0 mm | - | 245 W/m² | - |
| 1777934487 | 26.67° C | 60% | 1007.8 hPa | 0 mm | - | 297 W/m² | - |
| 1777934184 | 27.22° C | 60% | 1008.1 hPa | 0 mm | - | 301 W/m² | - |
| 1777933880 | 26.67° C | 61% | 1007.9 hPa | 0 mm | - | 352 W/m² | - |
| 1777933577 | 26.67° C | 60% | 1007.8 hPa | 0 mm | - | 381 W/m² | - |
| 1777933274 | 26.67° C | 61% | 1007.9 hPa | 0 mm | - | 314 W/m² | - |
| 1777932971 | 26.67° C | 61% | 1007.8 hPa | 0 mm | - | 287 W/m² | - |
| 1777932668 | 26.67° C | 60% | 1007.9 hPa | 0 mm | - | 289 W/m² | - |
| 1777932364 | 26.67° C | 61% | 1008.1 hPa | 0 mm | - | 266 W/m² | - |
| 1777932062 | 26.67° C | 60% | 1008 hPa | 0 mm | - | 251 W/m² | - |
| 1777931758 | 26.67° C | 59% | 1008.2 hPa | 0 mm | - | 407 W/m² | - |
| 1777931456 | 26.67° C | 59% | 1008.1 hPa | 0 mm | - | 476 W/m² | - |
| 1777931151 | 27.22° C | 59% | 1008.2 hPa | 0 mm | - | 445 W/m² | - |
| 1777930848 | 26.67° C | 59% | 1008.2 hPa | 0 mm | - | 522 W/m² | - |
| 1777930544 | 26.67° C | 59% | 1008.4 hPa | 0 mm | - | 524 W/m² | - |
| 1777930242 | 26.67° C | 60% | 1008.6 hPa | 0 mm | - | 418 W/m² | - |
| 1777929937 | 27.22° C | 58% | 1008.6 hPa | 0 mm | - | 549 W/m² | - |
| 1777929635 | 27.22° C | 59% | 1008.6 hPa | 0 mm | - | 375 W/m² | - |
| 1777929332 | 27.22° C | 58% | 1008.6 hPa | 0 mm | - | 534 W/m² | - |
| 1777929029 | 27.22° C | 58% | 1008.6 hPa | 0 mm | - | 623 W/m² | - |
| 1777928726 | 27.22° C | 57% | 1008.8 hPa | 0 mm | - | 609 W/m² | - |
| 1777928422 | 27.22° C | 58% | 1008.9 hPa | 0 mm | - | 706 W/m² | - |
* Rain latest hour (hover to see other rain measurements)
** Current wind speed in m/s (hover to see current wind gust speed)